This demonstration page uses our WeatherBlox Daily Observations layout. Learn more.

Left ArrowRight Arrow

39.51506, -84.39828

Hourly Observations for April 13, 2021

Temp ( °F °C ) Dew Point ( °F °C ) Humidity (%) Winds ( mph kmh ) Pressure ( in mb ) Visibility ( mi km ) Precip ( " mm )
12:15 am 00:15 Clear 43 6 N/A N/A Calm 30.03 1017 7 11.26538 0 0
12:35 am 00:35 Clear 45 7 N/A N/A Calm 30.03 1017 10 16.0934 0 0
12:55 am 00:55 Clear 43 6 N/A N/A NW 5 7 30.04 1017 10 16.0934 0 0
1:15 am 01:15 Clear 49 9.4 45 7.3 87 87 NW 8 13 30.03 1017 10 16.0934 0 0
1:35 am 01:35 Clear 51 10.3 42 5.8 74 74 NW 8 13 30.04 1017 10 16.0934 0 0
1:55 am 01:55 Clear 50 9.8 42 5.5 75 75 WNW 6 9 30.05 1018 10 16.0934 0 0
2:15 am 02:15 Clear 48 8.9 41 5.2 78 78 Calm 30.05 1018 10 16.0934 0 0
2:35 am 02:35 Clear 45 7.4 42 5.6 88 88 Calm 30.06 1018 10 16.0934 0 0
2:55 am 02:55 Clear 44 6.5 41 4.9 90 90 Calm 30.06 1018 10 16.0934 0 0
3:15 am 03:15 Clear 45 7.1 43 5.9 92 92 NNE 3 6 30.06 1018 10 16.0934 0 0
3:35 am 03:35 Clear 44 6.5 43 6 97 97 Calm 30.06 1018 10 16.0934 0 0
3:55 am 03:55 Clear 42 5.7 42 5.7 100 100 NNE 5 7 30.07 1018 10 16.0934 0 0
4:15 am 04:15 Clear 43 6 43 6 100 100 Calm 30.08 1019 10 16.0934 0 0
4:35 am 04:35 Clear 41 5 N/A N/A Calm 30.09 1019 10 16.0934 0 0
4:55 am 04:55 Clear 43 6 N/A N/A Calm 30.09 1019 10 16.0934 0 0
5:15 am 05:15 Clear 45 7 N/A N/A Calm 30.09 1019 10 16.0934 0 0
5:35 am 05:35 Clear 43 6 N/A N/A Calm 30.09 1019 10 16.0934 0 0
5:55 am 05:55 Clear 43 6 43 6 100 100 Calm 30.1 1019 10 16.0934 0 0
6:15 am 06:15 Clear 41 5 N/A N/A Calm 30.1 1019 10 16.0934 0 0
6:35 am 06:35 Hazy 39 4 N/A N/A Calm 30.11 1020 5 8.0467 0 0
6:55 am 06:55 Clear 41 5 N/A N/A Calm 30.1 1019 10 16.0934 0 0
7:15 am 07:15 Partly Cloudy 41 5 N/A N/A Calm 30.1 1019 10 16.0934 0 0
7:35 am 07:35 Cloudy 43 6 N/A N/A Calm 30.12 1020 10 16.0934 0 0
7:55 am 07:55 Cloudy 45 7 N/A N/A Calm 30.13 1020 10 16.0934 0 0
8:15 am 08:15 Cloudy 45 7 N/A N/A Calm 30.14 1021 7 11.26538 0 0
8:35 am 08:35 Cloudy 47 8.4 46 8 97 97 Calm 30.14 1021 10 16.0934 0 0
8:55 am 08:55 Cloudy 49 9.3 46 7.7 90 90 Calm 30.14 1021 10 16.0934 0 0
9:15 am 09:15 Cloudy 50 9.8 47 8.3 90 90 Calm 30.16 1021 10 16.0934 0 0
9:35 am 09:35 Cloudy 50 10.1 46 7.5 84 84 SW 3 6 30.16 1021 10 16.0934 0 0
9:55 am 09:55 Cloudy 51 10.3 46 7.5 83 83 SSW 5 7 30.17 1022 10 16.0934 0 0
10:15 am 10:15 Cloudy 52 11 44 6.8 76 76 SW 3 6 30.18 1022 10 16.0934 0 0
10:35 am 10:35 Mostly Cloudy 53 11.6 43 6.1 69 69 SSW 5 7 30.18 1022 10 16.0934 0 0
10:55 am 10:55 Sunny 54 12.4 39 4.1 57 57 Calm 30.17 1022 10 16.0934 0 0
11:15 am 11:15 Sunny 56 13.3 39 3.9 53 53 SSE 3 6 30.18 1022 10 16.0934 0 0
11:35 am 11:35 Hazy 58 14.2 39 4 51 51 S 3 6 30.17 1022 4 6.43736 0 0
11:55 am 11:55 Sunny 59 15 39 4 48 48 SE 5 7 30.16 1021 10 16.0934 0 0
12:15 pm 12:15 Sunny 59 15.1 39 3.8 47 47 E 3 6 30.16 1021 N/A 0 0
12:35 pm 12:35 Sunny with Thunderstorms 60 15.7 37 2.5 41 41 Calm 30.14 1021 N/A 0 0
12:55 pm 12:55 Sunny 61 15.9 38 3.2 43 43 N 3 6 30.13 1020 10 16.0934 0 0
1:15 pm 13:15 Sunny 63 17 37 3 39 39 undefined N/A N/A N/A 0 0
1:35 pm 13:35 Sunny 62 16.9 38 3.1 40 40 SSW 7 11 30.13 1020 10 16.0934 0 0
1:55 pm 13:55 Sunny 63 17.2 36 2.3 37 37 NW 12 19 30.12 1020 10 16.0934 0 0
2:15 pm 14:15 Sunny 63 17.3 35 1.7 35 35 NNW 6 9 30.12 1020 10 16.0934 0 0
2:35 pm 14:35 Sunny 65 18.2 37 3 36 36 WSW 12 19 30.12 1020 10 16.0934 0 0
2:55 pm 14:55 Sunny 65 18.2 37 2.7 36 36 W 7 11 30.11 1020 10 16.0934 0 0
3:15 pm 15:15 Sunny 65 18.2 37 2.9 36 36 SSW 6 9 30.1 1019 10 16.0934 0 0
3:35 pm 15:35 Sunny 65 18.1 37 2.9 36 36 W 7 11 30.1 1019 10 16.0934 0 0
3:55 pm 15:55 Sunny 65 18.6 37 3 36 36 SW 9 15 30.09 1019 10 16.0934 0 0
4:15 pm 16:15 Sunny 66 18.9 40 4.2 38 38 W 7 11 30.08 1019 10 16.0934 0 0
4:35 pm 16:35 Sunny 66 19.1 39 4 37 37 W 7 11 30.08 1019 10 16.0934 0 0
4:55 pm 16:55 Sunny 66 18.8 39 3.8 37 37 WNW 5 7 30.07 1018 10 16.0934 0 0
5:15 pm 17:15 Mostly Cloudy 67 19.5 40 4.5 37 37 W 12 19 30.07 1018 10 16.0934 0 0
5:35 pm 17:35 Partly Cloudy 67 19.2 40 4.3 38 38 W 14 22 30.08 1019 10 16.0934 0 0
5:55 pm 17:55 Sunny 66 18.8 40 4.6 39 39 W 10 17 30.07 1018 10 16.0934 0 0
6:15 pm 18:15 Sunny 66 18.7 40 4.3 39 39 WNW 9 15 30.08 1019 10 16.0934 0 0
6:35 pm 18:35 Sunny 66 18.7 41 4.8 40 40 W 9 15 30.08 1019 10 16.0934 0 0
6:55 pm 18:55 Partly Cloudy 65 18.5 40 4.7 40 40 WSW 8 13 30.08 1019 10 16.0934 0 0
7:15 pm 19:15 Sunny 63 17.4 41 4.9 44 44 WNW 8 13 30.08 1019 10 16.0934 0 0
7:35 pm 19:35 Cloudy 64 17.8 41 4.9 43 43 W 6 9 30.08 1019 10 16.0934 0 0
7:55 pm 19:55 Mostly Cloudy 62 16.5 42 5.7 49 49 WSW 6 9 30.08 1019 10 16.0934 0 0
8:15 pm 20:15 Mostly Cloudy 61 16.2 41 5.2 48 48 WSW 7 11 30.08 1019 10 16.0934 0 0
8:35 pm 20:35 Mostly Cloudy 59 14.9 43 6 55 55 W 5 7 30.09 1019 10 16.0934 0 0
8:55 pm 20:55 Clear 58 14.2 44 6.9 62 62 WSW 6 9 30.1 1019 10 16.0934 0 0
9:15 pm 21:15 Clear 53 11.9 45 7.3 74 74 W 5 7 30.11 1020 10 16.0934 0 0
9:35 pm 21:35 Partly Cloudy 52 11.1 46 7.9 81 81 WNW 5 7 30.13 1020 10 16.0934 0 0
9:55 pm 21:55 Clear 51 10.4 46 7.7 84 84 W 3 6 30.13 1020 10 16.0934 0 0
10:15 pm 22:15 Clear 50 9.9 45 7 82 82 Calm 30.14 1021 10 16.0934 0 0
10:35 pm 22:35 Clear 50 10.2 45 7.4 83 83 Calm 30.14 1021 10 16.0934 0 0
10:55 pm 22:55 Clear 51 10.7 44 6.7 77 77 WNW 3 6 30.14 1021 10 16.0934 0 0
11:15 pm 23:15 Clear 51 10.4 44 6.5 77 77 NNW 3 6 30.14 1021 10 16.0934 0 0
11:35 pm 23:35 Partly Cloudy 51 10.3 47 8.2 87 87 NE 3 6 30.14 1021 10 16.0934 0 0
11:55 pm 23:55 Partly Cloudy 49 9.3 46 8 92 92 Calm 30.14 1021 10 16.0934 0 0

Powered by AerisWeather